Waupaca, WI

7:42 PM CDT on April 22, 2018 (GMT -0500)
Waupaca Municipal

Weather History for KPCZ - August, 2013

Change the Weather History Date:

Tuesday, August 27, 2013

  Actual Average Record
Temperature  
Mean Temperature 86 °F -  
Max Temperature 97 °F 80 °F 97 °F (1973)
Min Temperature 75 °F 57 °F 38 °F (1968)
Cooling Degree Days 21    
Growing Degree Days 36 (Base 50)    
Moisture  
Dew Point 73 °F    
Average Humidity 73    
Maximum Humidity 94    
Minimum Humidity 37    
Precipitation  
Precipitation 0.01 in - - ()
Sea Level Pressure  
Sea Level Pressure 29.87 in    
Wind  
Wind Speed 3 mph (SW)    
Max Wind Speed 13 mph    
Max Gust Speed 22 mph    
Visibility 8 miles    
Events Rain    
Averages and records for this station are not official NWS values.
T = Trace of Precipitation, MM = Missing Value Source: NWS Daily Summary

Daily Weather History Graph

Daily Weather History Graph

Search for Another Location

Airport or City:

Astronomy

Aug. 27, 2013 Rise Set
Actual Time 6:13 AM CDT 7:40 PM CDT
Civil Twilight 5:43 AM CDT 8:10 PM CDT
Nautical Twilight 5:06 AM CDT 8:47 PM CDT
Astronomical Twilight 4:27 AM CDT 9:26 PM CDT
Moon 11:16 PM CDT (8/27) 1:28 PM CDT (8/27)
Length of Visible Light 14h 27m
Length of Day
13h 27m
Waning Gibbous, 57% of the Moon is Illuminated
Aug 27
Waning Gibbous
Aug 28
Last Quarter
Sep 5
New
Sep 12
First Quarter
Sep 19
Full

Hourly Weather History & Observations

Time (CDT) Temp. Heat Index Dew Point Humidity Pressure Visibility Wind Dir Wind Speed Gust Speed Precip Events Conditions
12:15 AM 78.1 °F - 75.2 °F 91% 29.96 in 7.0 mi NNE 4.6 mph - N/A   Scattered Clouds
12:35 AM 78.1 °F - 75.2 °F 91% 29.97 in 10.0 mi Calm Calm - N/A   Mostly Cloudy
12:55 AM 78.1 °F - 75.2 °F 91% 29.95 in 10.0 mi Calm Calm - N/A   Scattered Clouds
1:15 AM 78.1 °F - 75.2 °F 91% 29.94 in 7.0 mi Calm Calm - N/A Rain Light Rain
1:35 AM 78.1 °F - 75.4 °F 91% 29.93 in 7.0 mi ESE 3.5 mph - 0.01 in Rain Light Rain
1:55 AM 78.1 °F - 75.6 °F 92% 29.92 in 5.0 mi Calm Calm - 0.01 in Rain Light Rain
2:15 AM 78.1 °F - 75.6 °F 92% 29.93 in 5.0 mi Calm Calm - N/A   Mostly Cloudy
2:35 AM 78.1 °F - 75.7 °F 92% 29.92 in 5.0 mi Calm Calm - N/A   Overcast
2:55 AM 78.1 °F - 75.7 °F 92% 29.92 in 4.0 mi Calm Calm - N/A   Mostly Cloudy
3:15 AM 78.1 °F - 75.7 °F 92% 29.92 in 5.0 mi Calm Calm - N/A   Overcast
3:35 AM 77.7 °F - 75.4 °F 92% 29.92 in 5.0 mi Calm Calm - N/A   Mostly Cloudy
3:55 AM 77.2 °F - 75.0 °F 93% 29.92 in 4.0 mi ESE 3.5 mph - N/A   Clear
4:15 AM 77.2 °F - 75.2 °F 94% 29.92 in 4.0 mi Calm Calm - N/A   Clear
4:35 AM 76.8 °F - 74.7 °F 93% 29.91 in 3.0 mi SE 3.5 mph - N/A   Clear
4:55 AM 76.8 °F - 74.5 °F 92% 29.91 in 4.0 mi SE 3.5 mph - N/A   Scattered Clouds
5:15 AM 76.5 °F - 74.5 °F 94% 29.91 in 4.0 mi SSE 3.5 mph - N/A   Mostly Cloudy
5:35 AM 76.3 °F - 74.3 °F 94% 29.91 in 5.0 mi Calm Calm - N/A   Scattered Clouds
5:55 AM 76.3 °F - 74.3 °F 94% 29.91 in 5.0 mi Calm Calm - N/A   Scattered Clouds
6:15 AM 76.1 °F - 73.9 °F 93% 29.91 in 5.0 mi Calm Calm - N/A   Scattered Clouds
6:35 AM 75.7 °F - 73.6 °F 93% 29.90 in 7.0 mi Calm Calm - N/A   Mostly Cloudy
6:55 AM 75.4 °F - 73.0 °F 92% 29.90 in 5.0 mi South 4.6 mph - N/A   Scattered Clouds
7:15 AM 75.4 °F - 72.7 °F 91% 29.90 in 7.0 mi Calm Calm - N/A   Clear
7:35 AM 75.6 °F - 72.5 °F 90% 29.90 in 7.0 mi Calm Calm - N/A   Clear
7:55 AM 76.1 °F - 72.7 °F 89% 29.90 in 5.0 mi SSE 3.5 mph - N/A   Clear
8:15 AM 76.3 °F - 72.5 °F 88% 29.90 in 7.0 mi South 4.6 mph - N/A   Clear
8:35 AM 76.5 °F - 72.5 °F 87% 29.89 in 7.0 mi SSE 4.6 mph - N/A   Clear
8:55 AM 78.1 °F - 73.2 °F 85% 29.89 in 7.0 mi South 4.6 mph - N/A   Scattered Clouds
9:15 AM 79.7 °F - 72.5 °F 79% 29.88 in 10.0 mi South 5.8 mph - N/A   Mostly Cloudy
9:35 AM 81.5 °F 86.1 °F 72.0 °F 73% 29.88 in 10.0 mi South 6.9 mph - N/A   Scattered Clouds
9:55 AM 84.7 °F 90.4 °F 72.0 °F 65% 29.87 in 10.0 mi South 5.8 mph - N/A   Clear
10:15 AM 86.4 °F 92.2 °F 71.6 °F 61% 29.87 in 10.0 mi SW 8.1 mph - N/A   Clear
10:35 AM 86.2 °F 91.8 °F 71.2 °F 61% 29.86 in 10.0 mi SSW 8.1 mph - N/A   Clear
10:55 AM 87.4 °F 92.7 °F 70.7 °F 57% 29.85 in 10.0 mi SW 5.8 mph - N/A   Clear
11:15 AM 88.7 °F 94.3 °F 70.5 °F 55% 29.85 in 10.0 mi SSW 8.1 mph - N/A   Clear
11:35 AM 90.7 °F 97.4 °F 71.2 °F 53% 29.84 in 10.0 mi WSW 6.9 mph - N/A   Clear
11:55 AM 92.3 °F 97.6 °F 69.6 °F 47% 29.84 in 10.0 mi SW 9.2 mph - N/A   Clear
12:15 PM 92.3 °F 97.6 °F 69.4 °F 47% 29.84 in 10.0 mi WSW 5.8 mph - N/A   Clear
12:35 PM 93.0 °F 98.4 °F 69.6 °F 46% 29.84 in 10.0 mi West 6.9 mph - N/A   Clear
12:55 PM 93.9 °F 99.7 °F 69.6 °F 45% 29.83 in 10.0 mi WSW 5.8 mph - N/A   Clear
1:15 PM 94.6 °F 100.0 °F 69.3 °F 43% 29.82 in 10.0 mi West 9.2 mph - N/A   Clear
1:35 PM 94.8 °F 99.8 °F 68.7 °F 42% 29.81 in 10.0 mi WSW 6.9 mph - N/A   Clear
1:55 PM 95.5 °F 101.2 °F 69.1 °F 42% 29.81 in 10.0 mi WSW 4.6 mph - N/A   Clear
2:15 PM 95.9 °F 101.9 °F 69.4 °F 42% 29.80 in 10.0 mi WNW 4.6 mph - N/A   Clear
2:35 PM 95.9 °F 101.9 °F 69.1 °F 42% 29.79 in 10.0 mi West 4.6 mph - N/A   Clear
2:55 PM 96.4 °F 101.7 °F 68.7 °F 40% 29.79 in 10.0 mi SW 6.9 mph - N/A   Clear
3:15 PM 97.3 °F 103.6 °F 69.3 °F 40% 29.79 in 10.0 mi West 3.5 mph - N/A   Clear
3:35 PM 97.3 °F 101.7 °F 67.1 °F 37% 29.79 in 10.0 mi WSW 9.2 mph - N/A   Clear
3:55 PM 97.2 °F 101.9 °F 67.8 °F 38% 29.79 in 10.0 mi West 6.9 mph - N/A   Scattered Clouds
4:15 PM 97.3 °F 102.3 °F 68.0 °F 38% 29.79 in 10.0 mi West 8.1 mph - N/A   Scattered Clouds
4:35 PM 96.4 °F 101.1 °F 68.0 °F 39% 29.79 in 10.0 mi WNW 3.5 mph - N/A   Mostly Cloudy
4:55 PM 94.1 °F 101.2 °F 71.2 °F 47% 29.78 in 10.0 mi North 5.8 mph - N/A   Overcast
5:15 PM 93.2 °F 101.1 °F 72.3 °F 50% 29.80 in 10.0 mi North 5.8 mph - N/A   Overcast
5:35 PM 92.3 °F 100.3 °F 72.5 °F 52% 29.80 in 10.0 mi NNE 4.6 mph - N/A   Overcast
5:55 PM 92.3 °F 101.5 °F 73.6 °F 54% 29.81 in 10.0 mi Calm Calm - N/A   Overcast
6:15 PM 92.1 °F 102.4 °F 74.5 °F 56% 29.80 in 10.0 mi Calm Calm - N/A   Mostly Cloudy
6:35 PM 91.6 °F 101.7 °F 74.5 °F 57% 29.80 in 10.0 mi Calm Calm - N/A   Mostly Cloudy
6:55 PM 88.3 °F 99.5 °F 76.1 °F 67% 29.82 in 10.0 mi NNE 5.8 mph - N/A   Scattered Clouds
7:15 PM 82.0 °F 87.0 °F 72.1 °F 72% 29.83 in 10.0 mi NE 12.7 mph 21.9 mph N/A   Mostly Cloudy
7:35 PM 80.2 °F 84.5 °F 72.7 °F 78% 29.84 in 10.0 mi NNE 6.9 mph - N/A   Mostly Cloudy
7:55 PM 79.7 °F - 73.4 °F 81% 29.85 in 10.0 mi NE 4.6 mph - N/A   Overcast
8:15 PM 78.8 °F - 73.8 °F 84% 29.87 in 10.0 mi ENE 3.5 mph - N/A   Overcast
8:35 PM 78.1 °F - 73.8 °F 86% 29.86 in 10.0 mi NNE 3.5 mph - N/A   Overcast
8:55 PM 78.1 °F - 74.3 °F 88% 29.87 in 10.0 mi Calm Calm - N/A   Overcast
9:15 PM 78.1 °F - 73.9 °F 87% 29.88 in 10.0 mi Calm Calm - N/A   Overcast
9:35 PM 78.1 °F - 73.9 °F 87% 29.88 in 10.0 mi East 4.6 mph - N/A   Overcast
9:55 PM 78.1 °F - 74.3 °F 88% 29.89 in 10.0 mi NE 3.5 mph - N/A   Overcast
10:15 PM 77.9 °F - 74.5 °F 89% 29.90 in 10.0 mi Calm Calm - N/A   Overcast
10:35 PM 77.9 °F - 74.5 °F 89% 29.90 in 10.0 mi Calm Calm - N/A   Overcast
10:55 PM 77.4 °F - 74.1 °F 90% 29.90 in 10.0 mi Calm Calm - N/A   Overcast
11:15 PM 76.8 °F - 73.8 °F 90% 29.90 in 4.0 mi Calm Calm - N/A   Overcast
11:35 PM 76.1 °F - 73.4 °F 91% 29.90 in 3.0 mi NNE 4.6 mph - N/A   Overcast
11:55 PM 75.4 °F - 72.9 °F 92% 29.90 in 2.5 mi NNE 4.6 mph - N/A   Overcast